This demonstration page uses our WeatherBlox Daily Observations layout. Learn more.

Left ArrowRight Arrow

34.16533, -84.80231

Hourly Observations for June 26, 2019

Temp ( °F °C ) Dew Point ( °F °C ) Humidity (%) Winds ( mph kmh ) Pressure ( in mb ) Visibility ( mi km ) Precip ( " mm )
12:53 am 00:53 Clear 67 19.4 65 18.3 93 93 Calm 30.10 1019 10 16 0.00 0.00
1:53 am 01:53 Clear 67 19.4 65 18.3 93 93 Calm 30.10 1019 10 16 0.00 0.00
2:53 am 02:53 Clear 66 18.9 65 18.3 96 96 Calm 30.11 1020 10 16 0.00 0.00
3:53 am 03:53 Clear 65 18.3 64 17.8 97 97 Calm 30.12 1020 10 16 0.00 0.00
4:53 am 04:53 Clear 66 18.9 65 18.3 96 96 Calm 30.11 1020 10 16 0.00 0.00
5:53 am 05:53 Mostly Clear 66 18.9 64 17.8 93 93 Calm 30.14 1021 10 16 0.00 0.00
6:53 am 06:53 Sunny 65 18.3 64 17.8 97 97 Calm 30.15 1021 9 14 0.00 0.00
7:53 am 07:53 Sunny 70 21.1 67 19.4 90 90 Calm 30.16 1021 10 16 0.00 0.00
8:53 am 08:53 Sunny 74 23.3 68 20 82 82 Calm 30.18 1022 10 16 0.00 0.00
9:53 am 09:53 Sunny 76 24.4 68 20 77 77 VRB 3 6 30.19 1023 10 16 0.00 0.00
10:53 am 10:53 Sunny 78 25.6 69 20.6 74 74 SSW 3 6 30.18 1022 10 16 0.00 0.00
11:53 am 11:53 Sunny 82 27.8 69 20.6 65 65 Calm 30.17 1022 10 16 0.00 0.00
12:53 pm 12:53 Sunny 86 30 68 20 55 55 VRB 5 7 30.14 1021 10 16 0.00 0.00
1:53 pm 13:53 Sunny 88 31.1 67 19.4 50 50 VRB 7 11 30.12 1020 10 16 0.00 0.00
2:53 pm 14:53 Sunny 86 30 65 18.3 49 49 Calm 30.12 1020 10 16 0.00 0.00
3:53 pm 15:53 Sunny 81 27.2 68 20 65 65 Calm 30.13 1020 10 16 0.00 0.00
4:53 pm 16:53 Sunny 80 26.7 70 21.1 71 71 Calm 30.13 1020 10 16 0.00 0.00
5:53 pm 17:53 Sunny 80 26.7 71 21.7 74 74 VRB 3 6 30.11 1020 10 16 0.00 0.00
6:53 pm 18:53 Sunny 77 25 70 21.1 79 79 SSW 3 6 30.11 1020 10 16 0.00 0.00
7:53 pm 19:53 Sunny 77 25 69 20.6 77 77 Calm 30.12 1020 10 16 0.00 0.00
8:53 pm 20:53 Sunny 75 23.9 70 21.1 84 84 Calm 30.13 1020 10 16 0.00 0.00
9:53 pm 21:53 Clear 73 22.8 70 21.1 90 90 Calm 30.14 1021 10 16 0.00 0.00
10:53 pm 22:53 Clear 71 21.7 69 20.6 94 94 Calm 30.15 1021 10 16 0.00 0.00
11:53 pm 23:53 Clear 71 21.7 69 20.6 94 94 Calm 30.18 1022 10 16 0.00 0.00

Powered by AerisWeather